カタログに戻る

SL-8 R/B

運用中PO
NORAD 28910·ROCKET BODY·🇷🇺 Russia

打ち上げ Dec 21, 2005 から Plesetsk Cosmodrome

Loading…

次のパス (今後24時間)

TLE

最新Source: Space-Track

元期: Sep 14, 2026, 10:38 UTC

1 28910U 05048C   26257.44346525 -.00000028  00000-0 -23695-3 0  9992
2 28910  82.4617 255.7675 0015963 261.0696 266.6474 12.54966804949597

AllMySatでSL-8 R/Bをリアルタイム追跡

Download on the App Store